Volver al catálogo

SL-12 R/B(2)

ActivoGEO
NORAD 15139·ROCKET BODY·🇷🇺 Russia

Lanzado Mar 16, 1984 desde Baikonur Cosmodrome

Loading…

TLE

ActualizadoSource: Space-Track

Época: Sep 14, 2026, 16:36 UTC

1 15139U 84028F   26257.69218822 -.00000111  00000-0  00000-0 0  9995
2 15139   6.7999 300.5083 0018352  53.7458 119.3878  1.01430443125365

Sigue SL-12 R/B(2) en tiempo real con AllMySat

Download on the App Store